Theta_e
325 325 324 324 324 323 323 324 325 326 326 326 327 328 327 325 322 308 303 309 316 330 326 311 305 304 304 304 304 301 293 290 289 291 291 294 293 295 294 291 292 292 291 293 293
324 324 324 323 323 323 322 323 324 325 325 326 326 327 326 324 311 305 317 325 331 328 306 302 301 303 300 300 300 296 291 291 293 292 292 294 293 294 291 289 289 290 291 292 291
323 323 323 322 322 323 322 323 324 324 325 325 325 326 325 319 304 304 323 328 327 325 308 303 303 302 298 298 296 294 291 294 296 295 296 294 292 293 291 289 289 288 288 289 288
322 322 321 321 321 322 321 322 323 324 324 324 325 325 323 311 295 306 326 327 328 312 306 304 301 297 295 294 297 292 296 296 298 297 295 293 294 292 290 290 292 290 290 288 287
321 321 320 320 321 321 320 321 323 323 323 324 325 324 312 302 301 308 320 315 306 306 302 301 298 296 293 295 296 293 295 296 297 296 295 295 292 291 288 290 291 290 289 287 287
318 320 319 319 320 320 319 321 323 323 323 324 325 322 306 298 307 310 306 306 304 303 301 300 298 298 295 296 292 294 295 295 296 295 295 293 291 291 290 290 289 289 287 287 288
319 320 319 319 320 319 318 320 322 322 323 324 325 315 305 301 307 307 305 302 303 302 301 300 299 298 297 294 297 294 291 293 293 294 293 293 288 290 291 289 288 287 287 288 288
318 319 319 318 319 319 317 320 321 322 323 323 324 311 300 308 306 308 305 304 303 301 302 301 301 299 296 296 295 290 289 286 292 293 293 291 286 290 291 289 287 285 285 287 286
318 319 319 319 318 318 317 319 320 322 323 322 311 307 298 312 306 308 303 301 301 301 300 302 300 296 295 290 287 288 284 285 288 293 291 289 285 289 289 288 285 283 284 284 283
318 318 318 318 318 317 317 320 320 317 314 311 307 299 301 301 307 306 303 301 299 300 300 299 294 291 290 288 285 284 282 284 284 288 289 288 288 288 289 286 285 282 282 282 282
318 318 318 318 318 318 314 303 302 300 301 299 297 299 302 308 305 303 301 299 300 298 294 295 291 289 290 288 288 285 284 283 285 290 288 288 289 287 289 285 282 280 280 280 281
319 318 317 317 318 317 305 297 299 300 294 299 300 302 305 304 297 300 300 295 296 293 292 291 288 292 292 290 288 286 285 284 287 289 287 286 286 288 288 286 285 282 280 280 281
319 317 316 316 316 308 300 299 307 304 292 296 301 302 303 301 297 297 296 295 293 291 290 289 291 292 290 287 286 285 284 284 284 285 285 284 282 287 285 285 282 282 282 281 281
319 317 315 315 306 302 302 305 307 303 287 290 295 300 299 298 293 299 297 295 293 292 290 288 290 289 287 287 288 283 286 285 284 281 277 281 276 281 280 283 281 282 279 279 280
318 316 314 313 298 299 304 306 304 298 276 291 298 301 299 294 295 296 297 294 292 291 290 290 286 286 286 287 288 285 285 284 282 280 277 279 276 280 280 280 280 281 279 278 279
318 315 310 308 299 302 304 301 298 286 279 290 297 294 293 293 294 296 295 294 293 288 287 289 289 287 287 288 287 287 285 283 280 278 273 278 277 276 276 280 282 282 279 279 279
318 314 308 305 298 302 303 297 283 279 289 290 292 294 291 291 291 292 291 288 289 285 283 286 286 286 288 285 286 285 280 276 273 271 275 276 275 283 282 281 283 282 279 279 279
317 312 307 306 304 303 300 291 279 284 288 293 292 291 290 291 291 290 287 287 288 287 282 282 281 285 287 286 284 283 281 276 270 271 278 277 275 279 279 280 282 282 280 278 278
313 306 306 306 305 304 290 283 285 287 291 292 290 286 287 290 290 287 285 285 289 288 286 281 281 283 283 284 284 281 278 281 275 262 266 274 277 281 277 277 277 277 278 277 278
309 308 304 306 305 298 285 288 289 293 294 292 287 290 286 288 287 286 285 287 288 289 288 285 281 281 280 282 281 281 282 276 275 270 267 273 274 279 275 275 276 276 277 277 278
308 300 301 306 304 295 288 288 291 296 295 292 289 288 288 287 287 283 286 288 289 286 286 283 283 279 279 278 280 276 276 277 278 278 272 271 279 279 278 279 276 277 278 277 278
304 292 301 307 295 289 290 290 294 293 296 294 292 291 290 289 286 285 286 290 289 286 284 284 281 277 277 279 279 278 280 280 276 273 276 274 278 280 281 281 280 278 278 278 278
299 294 304 303 288 289 289 291 293 291 293 293 291 292 292 288 286 289 290 290 287 287 284 283 279 273 278 277 276 276 277 280 278 278 276 271 278 279 278 278 279 277 277 278 278
299 290 296 298 296 290 289 290 290 294 293 292 291 292 289 288 291 288 286 286 286 286 292 289 280 281 280 282 279 275 274 277 280 277 277 277 279 284 280 277 276 276 277 277 277
299 292 294 288 291 293 292 290 289 289 292 293 291 291 289 287 288 287 288 282 282 286 284 284 279 279 284 285 280 282 282 276 276 279 278 281 282 285 288 284 277 278 277 276 276
299 295 293 288 291 291 292 289 289 289 290 290 290 291 292 288 289 286 290 283 284 279 279 280 279 279 278 281 280 279 282 282 281 282 281 281 280 288 288 281 276 276 276 277 276
307 302 298 294 289 289 289 290 290 292 293 294 293 292 289 292 295 295 291 290 290 284 278 277 278 278 278 280 278 274 279 280 282 283 282 277 283 287 283 277 276 276 277 277 276
Wind_Speed
16 17 17 17 16 16 15 15 16 13 11 12 11 9 9 10 6 6 6 4 6 13 8 7 3 5 2 2 3 3 5 1 1 4 3 0 4 4 3 8 6 4 5 8 4
16 17 18 18 18 16 15 14 13 13 11 10 9 7 7 8 2 5 3 8 9 7 5 7 6 7 4 1 2 5 4 3 1 3 3 1 4 9 6 3 5 6 6 6 5
16 17 18 19 19 17 16 13 12 11 11 10 8 7 7 6 2 3 3 8 8 4 2 2 3 1 3 3 2 2 3 3 1 2 3 3 2 2 14 3 7 12 9 6 8
16 16 18 19 20 19 17 15 13 12 10 9 7 6 6 0 1 2 7 8 8 2 1 3 5 4 3 3 3 3 1 3 6 2 3 4 3 5 1 2 12 13 13 7 9
17 16 17 18 20 20 19 17 14 12 10 8 6 4 1 3 4 1 7 7 4 3 5 4 5 3 2 4 5 1 3 2 4 5 5 5 2 7 4 7 10 12 8 9 8
18 17 17 18 19 21 21 20 14 12 10 6 4 2 2 2 3 3 4 3 5 4 4 5 3 2 1 2 0 2 3 6 3 4 5 6 3 1 7 7 10 10 10 9 10
18 18 17 18 19 21 22 21 17 13 8 4 1 1 2 3 1 2 2 2 2 2 1 0 2 2 1 2 2 2 5 5 4 5 4 8 2 10 12 11 13 10 9 8 8
16 16 17 18 20 22 22 23 19 16 4 2 1 1 2 0 0 2 1 2 2 2 2 1 2 3 3 1 3 2 3 2 3 5 2 5 10 5 15 16 12 9 8 8 7
15 14 16 18 20 22 24 24 20 7 4 4 2 2 3 1 1 1 0 1 1 3 2 1 1 3 4 3 5 5 4 5 7 8 3 7 6 5 9 12 11 9 8 8 7
10 13 15 17 19 22 25 20 11 3 1 2 1 3 1 3 1 2 1 0 1 2 1 2 5 3 4 4 4 5 5 6 7 3 4 6 14 6 13 10 14 9 9 8 8
10 11 14 17 18 21 13 7 8 6 8 3 2 3 1 4 0 2 0 1 1 3 2 3 4 5 8 6 4 3 5 8 5 5 4 11 18 12 16 8 10 10 10 9 9
12 10 13 16 18 18 2 5 3 1 9 2 3 3 3 2 2 3 2 5 4 3 1 6 3 5 3 3 4 5 6 8 10 4 5 10 12 10 16 21 21 17 11 10 6
12 10 13 16 19 4 3 4 1 1 1 6 3 2 2 5 4 5 1 3 4 4 4 6 3 6 3 3 4 4 6 6 8 4 6 9 8 19 3 8 7 9 10 8 10
11 10 11 19 2 1 1 1 1 2 5 6 3 2 3 2 2 0 1 1 1 6 4 6 1 4 5 5 7 6 3 5 4 4 4 4 11 4 6 16 12 14 10 10 9
10 9 9 4 3 0 2 1 2 2 4 5 3 2 3 5 5 2 1 2 5 6 5 8 6 5 6 7 7 8 1 4 3 4 3 7 6 7 4 10 15 17 14 10 10
11 7 5 2 2 1 2 2 2 6 9 4 4 6 4 4 3 3 1 3 2 3 2 6 0 5 6 2 1 2 4 4 3 3 2 8 9 6 8 12 10 15 13 12 9
9 7 1 1 3 3 2 2 4 6 3 6 6 6 4 6 4 6 6 5 7 1 4 1 4 1 3 2 2 3 5 6 6 2 9 3 4 17 8 7 12 23 17 13 10
9 5 5 3 3 3 2 5 8 8 8 2 4 3 7 8 5 5 4 4 5 3 3 4 8 8 5 6 7 6 7 6 7 5 14 4 11 8 5 8 7 12 14 10 9
9 2 3 4 6 3 4 7 13 9 8 10 3 4 5 4 3 5 8 7 9 11 9 7 8 2 0 1 4 4 6 1 1 2 3 7 8 7 4 2 6 12 12 12 9
3 2 5 6 8 4 3 18 9 9 6 5 13 11 9 7 7 8 9 6 6 11 3 4 6 2 2 0 1 4 4 3 1 3 9 7 10 14 8 11 9 12 15 11 9
3 3 2 9 5 3 12 11 10 8 5 8 9 7 8 9 9 8 8 4 7 5 5 6 5 2 4 9 11 2 4 3 2 5 5 5 17 7 17 19 20 18 16 13 12
3 5 3 9 7 5 16 9 6 7 10 7 5 10 12 10 8 8 14 12 11 11 12 7 6 7 15 2 2 2 10 12 7 7 6 4 20 5 11 13 19 18 14 10 8
4 4 2 3 11 14 5 7 13 7 13 11 11 10 6 8 6 12 14 3 12 13 14 10 4 2 8 2 3 6 7 8 1 0 14 8 16 2 3 7 14 16 13 10 9
4 5 5 7 9 10 13 14 14 10 21 7 8 6 5 9 14 8 5 4 4 4 7 13 7 11 18 13 7 7 9 11 18 15 16 29 38 26 11 7 6 7 9 9 8
7 9 9 10 18 21 14 8 23 16 9 19 14 20 11 12 14 14 7 1 1 4 5 8 11 8 22 15 4 16 21 13 24 26 22 41 33 31 23 14 17 19 12 9 8
11 8 3 2 7 26 28 35 28 11 13 19 24 18 24 25 23 16 22 8 10 3 7 3 8 6 17 9 12 24 25 23 28 31 29 38 41 40 25 5 8 14 14 12 8
9 3 11 15 13 16 31 32 32 22 18 23 22 20 23 31 28 24 6 6 9 16 13 10 6 5 21 4 2 19 26 28 23 25 22 25 40 30 16 8 12 15 17 14 10
Wind_Direction
5 1 358 356 356 354 352 349 347 350 357 353 353 345 341 332 339 38 42 273 297 312 329 290 4 347 58 12 30 101 60 13 282 147 181 285 104 37 352 84 52 15 94 126 144
359 358 356 353 349 348 347 346 343 341 349 345 345 341 335 324 75 48 229 287 291 314 7 17 349 351 1 342 20 83 103 211 317 136 159 65 124 149 89 60 69 84 76 95 95
355 353 353 349 347 342 341 344 338 335 342 339 337 336 333 318 36 308 317 308 307 294 223 289 292 310 20 15 360 152 166 165 11 125 171 134 83 98 128 214 194 163 145 136 104
351 350 347 346 343 339 337 336 338 337 342 337 329 329 342 346 193 273 328 327 327 317 304 27 13 25 32 334 346 358 286 128 187 236 142 150 143 77 251 166 137 148 151 139 112
346 344 343 342 338 337 332 332 333 331 335 333 320 343 85 68 226 321 344 347 21 6 46 39 53 357 8 327 348 164 326 69 158 162 122 123 195 149 115 133 124 136 133 132 133
344 340 340 340 337 334 330 324 326 321 330 322 307 325 127 212 124 20 355 6 33 20 18 39 119 146 216 302 20 325 321 295 276 175 161 126 198 99 210 163 140 143 152 155 146
343 335 336 337 334 331 326 321 321 311 323 297 287 268 135 219 191 48 50 110 37 43 107 86 133 145 154 334 323 341 334 326 242 188 221 120 301 229 158 172 168 170 164 155 150
337 329 332 333 332 328 324 316 320 308 323 190 166 164 211 67 356 341 356 77 91 37 88 121 122 104 124 259 18 35 53 353 272 166 230 130 258 225 173 167 180 172 170 164 172
328 325 328 330 330 326 322 313 311 302 143 149 132 129 254 107 172 238 19 188 3 82 49 84 64 91 32 71 6 2 245 224 303 205 142 186 264 221 176 182 181 187 178 171 162
319 322 324 327 328 326 321 305 288 319 111 154 43 48 145 211 170 283 255 63 90 101 54 51 49 62 30 73 255 247 277 265 233 242 211 250 263 194 195 191 193 188 186 176 169
305 317 323 324 326 327 342 356 13 344 41 231 232 263 109 302 104 227 36 38 50 36 40 341 68 244 245 208 206 217 237 235 245 238 219 233 245 211 199 204 199 198 191 182 182
302 319 319 319 321 323 27 70 83 244 304 342 235 265 221 167 287 196 39 170 153 199 52 7 229 218 171 234 245 232 264 264 286 248 182 271 249 239 185 212 202 189 190 184 186
302 314 316 320 318 30 68 143 21 101 282 298 224 201 188 149 215 199 259 158 156 159 188 175 252 122 177 235 255 227 212 251 238 340 289 288 246 243 203 222 177 188 189 183 181
294 304 321 324 359 313 104 238 86 79 48 264 247 236 135 171 255 277 350 160 194 195 185 228 212 180 220 233 172 278 216 259 286 4 253 344 293 262 193 224 200 187 192 186 185
282 293 329 347 291 256 125 133 103 66 355 249 192 157 147 164 136 221 334 52 195 184 130 253 175 187 217 226 163 237 13 267 261 255 349 236 255 247 149 240 211 195 191 189 191
265 262 339 329 343 224 131 98 68 53 248 237 142 179 152 184 197 117 166 53 62 161 259 246 279 183 210 141 146 38 327 294 54 112 235 232 196 226 193 218 195 196 189 189 182
247 235 233 89 247 139 119 63 40 174 275 222 205 177 181 188 202 178 179 185 189 238 249 328 219 39 151 128 28 87 55 313 333 347 238 169 227 259 242 228 197 193 181 186 180
214 178 226 200 141 125 76 57 203 219 229 79 146 119 183 158 226 170 153 238 234 126 120 209 303 176 181 198 183 177 171 173 263 241 294 321 247 254 289 296 218 173 166 171 179
143 208 233 221 153 104 88 215 193 191 201 159 84 171 229 222 200 153 202 204 210 171 185 175 264 115 67 167 156 180 187 168 235 98 13 238 281 285 77 53 116 150 167 184 188
170 216 222 154 136 97 146 230 215 202 152 148 184 180 190 203 176 182 187 202 215 188 145 213 288 214 171 161 344 162 158 75 338 280 271 258 269 247 200 206 184 185 193 196 196
143 234 219 142 110 177 221 223 217 243 181 175 204 212 200 183 195 196 216 239 200 160 146 144 169 177 116 208 182 145 213 204 205 158 234 302 276 212 194 203 191 201 195 190 194
189 233 190 159 181 219 225 194 221 213 218 258 208 207 191 182 205 212 212 205 162 156 168 195 165 203 211 231 306 207 201 175 183 218 222 240 260 198 202 201 195 201 192 190 187
216 206 211 258 214 214 242 243 233 194 200 218 230 194 184 194 248 207 232 213 155 159 172 178 212 332 319 5 346 221 208 213 331 334 223 238 269 221 160 160 195 187 181 184 183
153 219 187 215 232 226 215 232 223 207 235 207 208 164 154 225 219 255 220 219 220 224 147 147 187 182 237 233 135 209 193 205 215 235 255 238 265 255 242 194 185 190 182 185 183
189 214 192 204 215 222 222 233 223 222 210 205 235 219 190 229 221 230 212 155 336 213 181 168 230 194 249 262 182 264 253 192 219 235 235 262 262 265 265 230 201 198 181 175 181
195 200 188 230 193 207 218 231 231 223 180 215 224 204 215 228 210 223 222 174 196 163 172 196 253 154 267 215 231 257 259 241 242 247 248 254 267 266 280 223 144 179 173 177 186
218 250 206 210 196 196 220 229 234 221 234 229 221 226 227 227 227 238 197 190 201 175 184 165 177 144 256 111 34 272 244 233 245 242 230 243 244 265 256 186 179 173 175 177 180